Weather Roundup
Issued by NWS Chicago, IL

Home | Current Version | Previous Version | Graphics & Text | Print | Product List | Glossary On
Versions: 1 2 3 4 5 6 7 8 9 10 11 12 13 14 15 16 17 18 19 20 21 22 23 24 25 26 27 28 29 30 31 32 33 34 35 36 37 38 39 40 41 42 43 44 45 46 47 48 49 50
000
NZUS59 KLOT 280558
HRRLOT

CHICAGO AREA WEATHER ROUNDUP
NATIONAL WEATHER SERVICE CHICAGO/ROMEOVILLE IL
100 AM CDT THU AUG 28 2014

NOTE: "FAIR" INDICATES FEW OR NO CLOUDS BELOW 12,000 FEET WITH NO
SIGNIFICANT WEATHER AND/OR OBSTRUCTIONS TO VISIBILITY.

* THESE STATIONS ARE NOT UNDER NWS QUALITY CONTROL. THEY ALSO MAY NOT
  REPORT WEATHER SUCH AS PRECIPITATION OR FOG.

ILZ005-006-012>014-019>023-280700-
NORTHEAST ILLINOIS

CITY           SKY/WX    TMP DP  RH WIND       PRES   REMARKS
OHARE            N/A     68  58  70 NE5       30.13S
6HR MIN TEMP:  68; 6HR MAX TEMP:  71;

MIDWAY           N/A     70  61  73 NE6       30.13R
6HR MIN TEMP:  70; 6HR MAX TEMP:  73;

AURORA           N/A     62  59  90 CALM      30.15R
6HR MIN TEMP:  62; 6HR MAX TEMP:  74;

WAUKEGAN         N/A     59  57  93 CALM      30.14S
6HR MIN TEMP:  59; 6HR MAX TEMP:  68;

DUPAGE AIRPORT   N/A     63  60  90 N3        30.14R
6HR MIN TEMP:  63; 6HR MAX TEMP:  72;

WHEELING         N/A     66  60  81 CALM      30.15S
6HR MIN TEMP:  66; 6HR MAX TEMP:  71;

NORTHERLY IS     N/A     70  59  68 NE12        N/A
$$

WIZ051-052-058>065-066-070>072-280700-
SOUTHEAST WISCONSIN

CITY           SKY/WX    TMP DP  RH WIND       PRES   REMARKS
MILWAUKEE        N/A     63  56  78 E3        30.16S
6HR MIN TEMP:  63; 6HR MAX TEMP:  66;

KENOSHA*         N/A     60  57  89 N5        30.15S
$$

INZ001>003-010>013-019-020-280700-
NORTHWEST INDIANA

CITY           SKY/WX    TMP DP  RH WIND       PRES   REMARKS
GARY*          NOT AVBL
MICHIGAN CITY* NOT AVBL
RENSSELAER*    NOT AVBL
$$

LMZ740>746-280700-
SOUTHERN LAKE MICHIGAN

STATION/POSITION TIME  SKY/WX   TEMP WIND        PRES    VSBY
                                AIR  DIR/SP/G
                 (UTC)          (F)  (DEG/KT/KT) (MB)    (MI)
HARRISON CRIB    0500            69   50/ 13/ 14   N/A
BURNHAM HARBOR   0500            70   50/ 10/ 12   N/A
CALUMET HARBOR   0500            70   40/  7/ 10 1019.0R
BURNS HARBOR     NOT AVBL
MICHIGAN CITY    0500            66   50/ 10/ 13   N/A
$$

ABBREVIATIONS USED IN REMARKS
   TC - TEMPERATURE IN CELSIUS
  WCI - WIND CHILL INDEX
   HX - HEAT INDEX
  VSB - VISIBILITY
$$


USA.gov is the U.S. government's official web portal to all federal, state and local government web resources and services.